Location: Namasale
(1.5000°N, 32.6167°E)
Time: 19:46:24
(UTC+00:00)

Nadezhda 1 Rocket - Pass Details

Date: 09 April 2020
Orbit: 940 x 1006 km, 83.0° (Epoch: 27 May)

Event Time Altitude Azimuth Distance (km) Brightness Sun altitude
Rises 17:18:20 0° 189° (S) 3,719 7.1 -21.4°
Reaches altitude 10° 17:20:52 10° 192° (SSW) 2,773 6.4 -22.0°
Maximum altitude 17:27:12 66° 273° (W) 1,090 4.4 -23.6°
Drops below altitude 10° 17:33:31 10° 354° (N) 2,769 6.5 -25.1°
Sets 17:36:03 0° 357° (N) 3,713 7.2 -25.8°
